When you browse on this site, cookies collect data to enhance your experience and personalize the content and advertising you see.
Visit our Privacy Policy to learn more. By continuing to use the site, you agree to this use of cookies and data.
  • In Czech Republic
  • List of Countries
  • For 7 days
  • Water Temperature
  • Satellite Maps
  • Weather Map
  • Weather Widgets
  • user-avatar
    Login

    Hourly Weather Phnom Penh

    Today, 21 June, Friday

    Time Temperature Precipitation Wind Pressure Humidity
    00:00 +29°C° 0.3 mm 2 mps 754 mmHg 76%
    01:00 +29°C° 0 mm 2 mps 754 mmHg 80%
    02:00 +29°C° 0.6 mm 2 mps 753 mmHg 81%
    03:00 +28°C° 0.6 mm 2 mps 753 mmHg 83%
    04:00 +28°C° 0.6 mm 2 mps 753 mmHg 84%
    05:00 +29°C° 0 mm 2 mps 753 mmHg 83%
    06:00 +29°C° 0 mm 2 mps 754 mmHg 82%
    07:00 +29°C° 0 mm 2 mps 754 mmHg 81%
    08:00 +31°C° 0.7 mm 2 mps 754 mmHg 75%
    09:00 +32°C° 0.7 mm 2 mps 754 mmHg 70%
    10:00 +35°C° 0.7 mm 2 mps 754 mmHg 64%
    11:00 +34°C° 0.7 mm 1 mps 754 mmHg 60%
    12:00 +35°C° 0.7 mm 1 mps 753 mmHg 56%
    13:00 +36°C° 0.7 mm 1 mps 753 mmHg 52%
    14:00 +36°C° 0 mm 1 mps 752 mmHg 53%
    15:00 +36°C° 0 mm 1 mps 752 mmHg 54%
    16:00 +37°C° 0 mm 2 mps 751 mmHg 54%
    17:00 +35°C° 0.1 mm 2 mps 751 mmHg 59%
    18:00 +34°C° 0.1 mm 2 mps 752 mmHg 64%
    19:00 +33°C° 0.1 mm 3 mps 752 mmHg 69%
    20:00 +31°C° 0.1 mm 3 mps 752 mmHg 71%
    21:00 +31°C° 0.1 mm 2 mps 753 mmHg 73%
    22:00 +30°C° 0.1 mm 2 mps 753 mmHg 75%
    23:00 +30°C° 0.2 mm 2 mps 753 mmHg 77%

    Tomorrow, 22 June, Saturday

    Time Temperature Precipitation Wind Pressure Humidity
    00:00 +30°C° 0.2 mm 2 mps 753 mmHg 78%
    01:00 +29°C° 0.2 mm 2 mps 753 mmHg 80%
    02:00 +29°C° 2.2 mm 2 mps 753 mmHg 83%
    03:00 +28°C° 2.2 mm 2 mps 752 mmHg 86%
    04:00 +28°C° 2.2 mm 2 mps 752 mmHg 89%
    05:00 +28°C° 0.9 mm 2 mps 752 mmHg 87%
    06:00 +29°C° 0.9 mm 2 mps 753 mmHg 85%
    07:00 +29°C° 0.9 mm 2 mps 753 mmHg 82%
    08:00 +31°C° 0.1 mm 1 mps 753 mmHg 76%
    09:00 +32°C° 0.1 mm 1 mps 753 mmHg 69%
    10:00 +34°C° 0.1 mm 1 mps 753 mmHg 62%
    11:00 +35°C° 0.1 mm 1 mps 753 mmHg 59%
    12:00 +36°C° 0.1 mm 1 mps 752 mmHg 55%
    13:00 +36°C° 0.1 mm 1 mps 752 mmHg 52%
    14:00 +36°C° 0.4 mm 1 mps 751 mmHg 54%
    15:00 +36°C° 0.4 mm 1 mps 751 mmHg 55%
    16:00 +35°C° 0.4 mm 1 mps 750 mmHg 57%
    17:00 +34°C° 1 mm 1 mps 751 mmHg 64%
    18:00 +34°C° 1 mm 2 mps 751 mmHg 70%
    19:00 +31°C° 1 mm 2 mps 752 mmHg 76%
    20:00 +31°C° 0 mm 2 mps 752 mmHg 78%
    21:00 +30°C° 0 mm 2 mps 752 mmHg 79%
    22:00 +30°C° 0 mm 2 mps 753 mmHg 80%
    23:00 +30°C° 0 mm 2 mps 752 mmHg 82%

    Day after tomorrow, 23 June, Sunday

    Time Temperature Precipitation Wind Pressure Humidity
    00:00 +29°C° 0 mm 2 mps 752 mmHg 83%
    01:00 +29°C° 0 mm 2 mps 752 mmHg 84%
    02:00 +29°C° 0 mm 2 mps 752 mmHg 85%
    03:00 +29°C° 0 mm 2 mps 752 mmHg 87%
    04:00 +28°C° 0 mm 2 mps 751 mmHg 88%
    05:00 +29°C° 0 mm 1 mps 752 mmHg 86%
    06:00 +29°C° 0 mm 1 mps 752 mmHg 84%
    07:00 +29°C° 0 mm 1 mps 752 mmHg 83%
    08:00 +31°C° 0 mm 1 mps 752 mmHg 76%
    09:00 +32°C° 0 mm 2 mps 753 mmHg 69%
    10:00 +35°C° 0 mm 2 mps 753 mmHg 62%
    11:00 +36°C° 0.5 mm 2 mps 752 mmHg 60%
    12:00 +36°C° 0.5 mm 2 mps 752 mmHg 57%
    13:00 +37°C° 0.5 mm 2 mps 752 mmHg 55%
    14:00 +37°C° 1.4 mm 2 mps 751 mmHg 57%
    15:00 +36°C° 1.4 mm 2 mps 751 mmHg 59%
    16:00 +36°C° 1.4 mm 3 mps 750 mmHg 61%
    17:00 +34°C° 0.9 mm 3 mps 751 mmHg 67%
    18:00 +33°C° 0.9 mm 3 mps 751 mmHg 73%
    19:00 +32°C° 0.9 mm 4 mps 752 mmHg 79%
    20:00 +30°C° 0.6 mm 3 mps 752 mmHg 81%
    21:00 +30°C° 0.6 mm 2 mps 753 mmHg 82%
    22:00 +30°C° 0.6 mm 1 mps 754 mmHg 84%
    23:00 +29°C° 0.2 mm 1 mps 753 mmHg 84%

    24 June, Monday

    Time Temperature Precipitation Wind Pressure Humidity
    00:00 +29°C° 0.2 mm 1 mps 753 mmHg 84%
    01:00 +29°C° 0.2 mm 1 mps 753 mmHg 84%
    02:00 +29°C° 0.2 mm 1 mps 753 mmHg 84%
    03:00 +29°C° 0.2 mm 2 mps 753 mmHg 84%
    04:00 +29°C° 0.2 mm 3 mps 752 mmHg 84%
    05:00 +29°C° 0 mm 4 mps 753 mmHg 84%
    06:00 +28°C° 0 mm 4 mps 753 mmHg 84%
    07:00 +28°C° 0 mm 5 mps 754 mmHg 84%
    08:00 +29°C° 0 mm 5 mps 754 mmHg 81%
    09:00 +30°C° 0 mm 5 mps 754 mmHg 77%
    10:00 +32°C° 0 mm 5 mps 755 mmHg 74%
    11:00 +33°C° 0.2 mm 5 mps 754 mmHg 71%
    12:00 +34°C° 0.2 mm 6 mps 754 mmHg 67%
    13:00 +34°C° 0.2 mm 6 mps 753 mmHg 64%
    14:00 +34°C° 1 mm 6 mps 753 mmHg 65%
    15:00 +34°C° 1 mm 6 mps 753 mmHg 66%
    16:00 +33°C° 1 mm 6 mps 752 mmHg 68%
    17:00 +32°C° 0.1 mm 6 mps 753 mmHg 72%
    18:00 +30°C° 0.1 mm 5 mps 753 mmHg 76%
    19:00 +29°C° 0.1 mm 5 mps 754 mmHg 80%
    20:00 +29°C° 0 mm 5 mps 754 mmHg 80%
    21:00 +28°C° 0 mm 4 mps 755 mmHg 80%
    22:00 +28°C° 0 mm 4 mps 755 mmHg 81%
    23:00 +28°C° 0 mm 3 mps 755 mmHg 82%

    25 June, Tuesday

    Time Temperature Precipitation Wind Pressure Humidity
    00:00 +28°C° 0 mm 3 mps 755 mmHg 83%
    01:00 +28°C° 0 mm 3 mps 754 mmHg 83%
    02:00 +27°C° 0 mm 3 mps 754 mmHg 84%
    03:00 +27°C° 0 mm 3 mps 754 mmHg 85%
    04:00 +27°C° 0 mm 2 mps 753 mmHg 86%
    05:00 +27°C° 0 mm 2 mps 754 mmHg 84%
    06:00 +28°C° 0 mm 2 mps 754 mmHg 83%
    07:00 +28°C° 0 mm 2 mps 755 mmHg 82%
    08:00 +29°C° 0 mm 2 mps 755 mmHg 79%
    09:00 +30°C° 0 mm 3 mps 755 mmHg 76%
    10:00 +31°C° 0 mm 3 mps 755 mmHg 73%
    11:00 +31°C° 0 mm 3 mps 755 mmHg 74%
    12:00 +31°C° 0 mm 3 mps 754 mmHg 74%
    13:00 +30°C° 0 mm 3 mps 754 mmHg 75%
    14:00 +32°C° 0.4 mm 4 mps 753 mmHg 73%
    15:00 +33°C° 0.4 mm 5 mps 753 mmHg 71%
    16:00 +33°C° 0.4 mm 5 mps 753 mmHg 69%
    17:00 +32°C° 0.5 mm 5 mps 753 mmHg 73%
    18:00 +30°C° 0.5 mm 4 mps 753 mmHg 77%
    19:00 +29°C° 0.5 mm 4 mps 754 mmHg 80%
    20:00 +29°C° 0 mm 4 mps 754 mmHg 81%
    21:00 +28°C° 0 mm 3 mps 755 mmHg 82%
    22:00 +28°C° 0 mm 3 mps 755 mmHg 83%
    23:00 +28°C° 0 mm 3 mps 755 mmHg 84%

    26 June, Wednesday

    Time Temperature Precipitation Wind Pressure Humidity
    00:00 +28°C° 0 mm 3 mps 754 mmHg 84%
    01:00 +27°C° 0 mm 3 mps 754 mmHg 85%
    02:00 +27°C° 0 mm 3 mps 754 mmHg 85%
    03:00 +27°C° 0 mm 3 mps 753 mmHg 86%
    04:00 +27°C° 0 mm 3 mps 753 mmHg 87%
    05:00 +27°C° 0 mm 3 mps 754 mmHg 87%
    06:00 +28°C° 0 mm 4 mps 754 mmHg 87%
    07:00 +28°C° 0 mm 4 mps 754 mmHg 87%
    08:00 +28°C° 0.1 mm 4 mps 754 mmHg 85%
    09:00 +29°C° 0.1 mm 4 mps 755 mmHg 82%
    10:00 +29°C° 0.1 mm 5 mps 755 mmHg 80%
    11:00 +29°C° 0.6 mm 5 mps 754 mmHg 80%
    12:00 +29°C° 0.6 mm 5 mps 754 mmHg 80%
    13:00 +29°C° 0.6 mm 6 mps 753 mmHg 80%
    14:00 +29°C° 0.7 mm 6 mps 753 mmHg 82%
    15:00 +28°C° 0.7 mm 6 mps 752 mmHg 84%
    16:00 +28°C° 0.7 mm 5 mps 752 mmHg 86%
    17:00 +28°C° 0.3 mm 5 mps 753 mmHg 87%
    18:00 +27°C° 0.3 mm 5 mps 753 mmHg 88%
    19:00 +27°C° 0.3 mm 5 mps 753 mmHg 88%
    20:00 +27°C° 1.2 mm 5 mps 754 mmHg 90%
    21:00 +27°C° 1.2 mm 5 mps 754 mmHg 91%
    22:00 +27°C° 1.2 mm 5 mps 755 mmHg 92%
    23:00 +27°C° 2.1 mm 4 mps 754 mmHg 93%
    Show more